STARLINK-1613

decayed
NORAD ID: 46165 Int'l Des: 2020-057 Owner: SPXS Country: US Constellation: starlink
LEOCIRCULAR
Gruppe

Über STARLINK-1613

Beschreibung wird geladen...

Höhenverlauf

Altitude vs Time

uPlot chart will show altitude changes over time

Zweizeiliger Elementsatz

1 46165U 20057BA 24141.03258648 .18583596 12254-4 31125-2 0 9991
2 46165 53.0837 246.8598 0008873 315.2743 222.3350 16.32364456209528
Epoch: 20. Mai 2024 • Age: 11662 hours

Aktueller Status

Position data unavailable
Startdatum 18. Aug. 2020
Alter 5 years
Verglühungsdatum 20. Mai 2024
Typ internet

Technische Details

Klassifizierung Payload
Masse 260.00 kg
Trockenmasse 248.00 kg
Gesamtmasse 260.00 kg
Länge 0.20 m
Durchmesser 2.80 m
Spannweite 9.00 m
Form Box + pan
Hersteller SPXS
Bus-Typ Starlink
Phasenstatus Reentered
Besitzer/Staat SPXS/US

Große Konstellationen

Loading constellations...